Location: Unnamed
(48.6007°N, 2.4808°E)
Time: 12:58:38
(UTC+02:00)

VELOX 1 - Pass Details

Date: 28 March 2023
Orbit: 617 x 630 km, 98.4° (Epoch: 30 May)

Event Time Altitude Azimuth Distance (km) Brightness Sun altitude
Rises 04:32:47 0° 62° (ENE) 2,916 ? -28.3°
Reaches altitude 10° 06:06:14 10° 112° (ESE) 2,003 ? -15.4°
Maximum altitude 06:09:34 22° 62° (ENE) 1,380 ? -14.9°
Drops below altitude 10° 06:12:55 10° 12° (NNE) 2,007 ? -14.4°
Sets 06:15:29 0° 357° (N) 2,916 ? -14.0°
